Location: Unspecified
(0.0000°N, 0.0000°E)
Time: 07:03:59
(UTC+00:00)

Vanguard 2 - All Passes

Search period start: 25 October 2014 00:00
Search period end: 04 November 2014 00:00
Orbit: 554 x 2947 km, 32.9° (Epoch: 24 October)

Date Brightness Start Highest point End Pass type
(mag) Time Alt. Az. Time Alt. Az. Time Alt. Az.
25 Oct - 00:31:47 10° NNW 00:35:50 39° NE 00:41:29 10° ESE night (unlit)
25 Oct - 02:39:46 10° W 02:44:53 34° SSW 02:52:44 10° SE visible
25 Oct - 04:52:48 10° SW 04:57:16 14° S 05:02:43 10° SSE visible
25 Oct - 07:08:07 10° SSW 07:13:19 13° S 07:19:08 10° SSE daylight
25 Oct - 09:18:09 10° SSW 09:30:40 24° SSE 09:43:35 10° ESE daylight
25 Oct - 11:28:35 10° SW 11:46:00 54° SSE 12:00:13 10° ENE daylight
25 Oct - 13:41:44 10° WSW 13:58:55 69° NW 14:10:27 10° NE daylight
25 Oct - 16:00:39 10° W 16:09:49 21° NW 16:16:36 10° N daylight
26 Oct - 00:50:37 10° NW 00:54:55 76° NE 01:01:16 10° ESE night (unlit)
26 Oct - 03:00:00 10° WSW 03:04:44 23° SSW 03:11:24 10° SSE visible
26 Oct - 05:15:25 10° SSW 05:17:56 11° S 05:20:42 10° S visible
26 Oct - 07:27:57 10° SSW 07:34:30 14° SSE 07:41:50 10° SE daylight
26 Oct - 09:37:06 10° SSW 09:51:10 30° SSE 10:05:21 10° E daylight
26 Oct - 11:47:47 10° SW 12:05:49 68° SE 12:20:06 10° ENE daylight
26 Oct - 14:01:58 10° WSW 14:18:15 52° NW 14:29:20 10° NE daylight
26 Oct - 16:23:39 10° WNW 16:29:25 14° NW 16:34:10 10° N daylight
26 Oct - 23:04:05 10° N 23:06:01 13° NE 23:08:05 10° ENE night (unlit)
27 Oct - 01:09:51 10° WNW 01:14:11 58° SSW 01:20:37 10° SE visible
27 Oct - 03:20:56 10° SW 03:24:47 15° SSW 03:29:39 10° SSE visible
27 Oct - 07:47:07 10° SSW 07:55:30 17° SSE 08:05:01 10° SE daylight
27 Oct - 09:56:01 10° SSW 10:11:24 39° SSE 10:26:32 10° E daylight
27 Oct - 12:07:10 10° SW 12:25:28 84° SE 12:39:39 10° ENE daylight
27 Oct - 14:22:43 10° W 14:37:36 39° NW 14:48:02 10° NNE daylight
27 Oct - 23:21:50 10° NNW 23:25:11 26° NE 23:29:03 10° E night (unlit)
28 Oct - 01:29:30 10° W 01:33:40 33° SSW 01:39:34 10° SE visible
28 Oct - 03:43:28 10° SSW 03:45:01 11° S 03:46:42 10° S visible
28 Oct - 08:05:58 10° SSW 08:16:15 21° SSE 08:27:57 10° ESE daylight
28 Oct - 10:14:58 10° SW 10:31:23 49° SSE 10:47:10 10° ENE daylight
28 Oct - 12:26:48 10° WSW 12:44:59 78° NW 12:58:56 10° NE daylight
28 Oct - 14:44:04 10° W 14:57:03 29° NW 15:06:32 10° NNE daylight
28 Oct - 23:40:27 10° NW 23:44:18 54° NE 23:49:00 10° ESE night (unlit)
29 Oct - 01:49:44 10° WSW 01:53:20 20° SSW 01:58:04 10° SSE visible
29 Oct - 06:20:22 10° SSE 06:20:47 10° SSE 06:21:12 10° SSE daylight
29 Oct - 08:24:43 10° SSW 08:36:42 26° SSE 08:50:18 10° ESE daylight
29 Oct - 10:34:01 10° SW 10:51:11 62° SE 11:07:21 10° ENE daylight
29 Oct - 12:46:45 10° WSW 13:04:27 62° NW 13:18:00 10° NE daylight
29 Oct - 15:06:10 10° WNW 15:16:42 21° NW 15:24:48 10° N daylight
29 Oct - 23:59:33 10° WNW 00:03:28 71° SW 00:08:25 10° SE night (unlit)
30 Oct - 02:10:59 10° SW 02:13:12 12° SSW 02:15:45 10° S visible
30 Oct - 06:36:54 10° S 06:41:40 12° SSE 06:47:01 10° SE daylight
30 Oct - 08:43:28 10° SSW 08:56:51 34° SSE 09:12:00 10° E daylight
30 Oct - 10:53:13 10° SW 11:10:51 77° SE 11:27:08 10° ENE daylight
30 Oct - 13:07:08 10° WSW 13:23:56 48° NW 13:36:52 10° NE daylight
30 Oct - 15:29:14 10° WNW 15:36:38 15° NNW 15:42:43 10° N daylight
30 Oct - 22:11:30 10° NNW 22:14:29 19° NNE 22:17:22 10° E night (unlit)
31 Oct - 00:19:06 10° W 00:22:47 34° SSW 00:27:22 10° SE night (unlit)
31 Oct - 06:55:02 10° S 07:02:19 16° SSE 07:10:55 10° ESE daylight
31 Oct - 09:02:15 10° SSW 09:16:45 43° SE 09:33:04 10° E daylight
31 Oct - 11:12:38 10° SW 11:30:26 87° NW 11:46:37 10° NE daylight
31 Oct - 13:28:01 10° W 13:43:31 37° NW 13:55:35 10° NNE daylight
31 Oct - 15:54:05 10° NW 15:56:52 11° NNW 15:59:25 10° NNW daylight
31 Oct - 22:29:54 10° NW 22:33:45 38° NE 22:37:32 10° ESE night (unlit)
01 Nov - 00:39:18 10° WSW 00:42:16 19° SSW 00:45:47 10° SSE night (unlit)
01 Nov - 07:13:23 10° SSW 07:22:40 21° SSE 07:34:00 10° ESE daylight
01 Nov - 09:21:09 10° SW 09:36:28 55° SE 09:53:36 10° ENE daylight
01 Nov - 11:32:20 10° WSW 11:50:00 70° NW 12:05:51 10° NE daylight
01 Nov - 13:49:33 10° W 14:03:16 28° NNW 14:14:10 10° NNE daylight
01 Nov - 22:48:51 10° NW 22:52:56 86° NE 22:57:03 10° SE night (unlit)
02 Nov - 01:01:20 10° SSW 01:01:55 10° SSW 01:02:30 10° SSW night (unlit)
02 Nov - 07:31:51 10° SSW 07:42:43 28° SSE 07:56:19 10° E daylight
02 Nov - 09:40:10 10° SW 09:56:05 69° SE 10:13:40 10° ENE daylight
02 Nov - 11:52:22 10° WSW 12:09:35 56° NW 12:24:53 10° NE daylight
02 Nov - 14:11:48 10° WNW 14:23:16 21° NNW 14:32:37 10° NNE daylight
02 Nov - 21:00:20 10° NNW 21:03:36 17° NNE 21:06:24 10° ENE night (unlit)
02 Nov - 23:08:18 10° WNW 23:12:08 42° SW 23:16:04 10° SE night (unlit)
03 Nov - 05:46:43 10° SSE 05:49:00 11° SSE 05:51:28 10° SE daylight
03 Nov - 07:50:26 10° SSW 08:02:30 36° SE 08:17:53 10° E daylight
03 Nov - 09:59:23 10° SW 10:15:39 85° SE 10:33:23 10° NE daylight
03 Nov - 12:12:51 10° W 12:29:17 44° NW 12:43:46 10° NNE daylight
03 Nov - 14:34:50 10° WNW 14:43:34 16° NNW 14:50:56 10° N daylight
03 Nov - 21:18:38 10° NNW 21:23:05 32° NNE 21:26:41 10° E night (unlit)
03 Nov - 23:28:21 10° W 23:31:23 21° SSW 23:34:33 10° SSE night (unlit)
